| time (UTC) | temp F | wind direction | speed MPH | gust MPH | rain 1hr in | rain 24hr in | rain mn in | humidity % | barometer mb |
| 20260507173527 | 64 | 330 | 2.0 | 6.0 | 0.00 | 0.19 | 0.10 | 34 | 1006.1 |
| 20260507173047 | 64 | 326 | 2.0 | 4.0 | 0.00 | 0.19 | 0.10 | 36 | 1006.2 |
| 20260507172547 | 63 | 314 | 2.0 | 6.0 | 0.00 | 0.19 | 0.10 | 37 | 1006.1 |
| 20260507172027 | 63 | 330 | 2.0 | 6.0 | 0.00 | 0.19 | 0.10 | 37 | 1006.3 |
| 20260507171529 | 63 | 18 | 2.0 | 6.0 | 0.00 | 0.19 | 0.10 | 36 | 1006.3 |
| 20260507171029 | 63 | 8 | 2.0 | 6.0 | 0.00 | 0.19 | 0.10 | 38 | 1006.4 |
| 20260507170529 | 63 | 2 | 2.0 | 6.0 | 0.00 | 0.19 | 0.10 | 37 | 1006.5 |
| 20260507170028 | 63 | 348 | 2.0 | 6.0 | 0.00 | 0.19 | 0.10 | 39 | 1006.5 |
| 20260507165528 | 62 | 318 | 2.0 | 6.0 | 0.00 | 0.19 | 0.10 | 40 | 1006.6 |
| 20260507165028 | 62 | 327 | 2.0 | 6.0 | 0.00 | 0.19 | 0.10 | 43 | 1006.5 |
| 20260507164528 | 62 | 8 | 2.0 | 7.0 | 0.00 | 0.19 | 0.10 | 44 | 1006.5 |
| 20260507164028 | 62 | 358 | 3.0 | 7.0 | 0.00 | 0.19 | 0.10 | 42 | 1006.6 |
| 20260507163528 | 62 | 9 | 2.0 | 4.0 | 0.00 | 0.19 | 0.10 | 45 | 1006.8 |
| 20260507163028 | 61 | 12 | 2.0 | 4.0 | 0.00 | 0.19 | 0.10 | 44 | 1006.9 |
| 20260507162548 | 62 | 354 | 2.0 | 6.0 | 0.00 | 0.19 | 0.10 | 46 | 1006.8 |
| 20260507162027 | 62 | 9 | 3.0 | 6.0 | 0.00 | 0.19 | 0.10 | 46 | 1006.8 |
| 20260507161527 | 62 | 11 | 2.0 | 4.0 | 0.00 | 0.19 | 0.10 | 51 | 1006.9 |
| 20260507161027 | 61 | 349 | 2.0 | 4.0 | 0.00 | 0.19 | 0.10 | 49 | 1006.9 |
| 20260507160607 | 62 | 296 | 3.0 | 14.0 | 0.00 | 0.19 | 0.10 | 52 | 1007.0 |
| 20260507160027 | 60 | 17 | 1.0 | 4.0 | 0.00 | 0.19 | 0.10 | 51 | 1007.1 |
| 20260507155529 | 61 | 328 | 2.0 | 4.0 | 0.00 | 0.19 | 0.10 | 52 | 1007.1 |
| 20260507155029 | 61 | 344 | 2.0 | 4.0 | 0.00 | 0.19 | 0.10 | 53 | 1007.0 |
| 20260507154528 | 60 | 34 | 2.0 | 7.0 | 0.00 | 0.19 | 0.10 | 54 | 1007.1 |
| 20260507154028 | 59 | 11 | 3.0 | 7.0 | 0.00 | 0.19 | 0.10 | 54 | 1007.1 |
| 20260507153548 | 58 | 25 | 2.0 | 4.0 | 0.00 | 0.19 | 0.10 | 57 | 1007.2 |
| 20260507153028 | 58 | 42 | 1.0 | 3.0 | 0.00 | 0.19 | 0.10 | 56 | 1007.2 |
| 20260507152529 | 59 | 24 | 2.0 | 6.0 | 0.00 | 0.19 | 0.10 | 55 | 1007.2 |
| 20260507152029 | 59 | 20 | 2.0 | 6.0 | 0.00 | 0.19 | 0.10 | 57 | 1007.3 |
| 20260507151548 | 58 | 359 | 1.0 | 4.0 | 0.00 | 0.19 | 0.10 | 58 | 1007.4 |
| 20260507151033 | 58 | 28 | 1.0 | 3.0 | 0.00 | 0.19 | 0.10 | 56 | 1007.4 |
| 20260507150528 | 59 | 17 | 2.0 | 6.0 | 0.00 | 0.19 | 0.10 | 55 | 1007.4 |
| 20260507150028 | 59 | 29 | 2.0 | 4.0 | 0.00 | 0.19 | 0.10 | 55 | 1007.5 |
| 20260507145529 | 60 | 25 | 1.0 | 3.0 | 0.00 | 0.19 | 0.10 | 54 | 1007.6 |
| 20260507145033 | 59 | 301 | 2.0 | 6.0 | 0.00 | 0.19 | 0.10 | 59 | 1007.6 |
| 20260507144528 | 58 | 16 | 1.0 | 3.0 | 0.00 | 0.19 | 0.10 | 58 | 1007.7 |
| 20260507144028 | 57 | 20 | 1.0 | 3.0 | 0.00 | 0.19 | 0.10 | 59 | 1007.8 |
| 20260507143528 | 58 | 12 | 2.0 | 4.0 | 0.00 | 0.19 | 0.10 | 57 | 1007.8 |
| 20260507143028 | 58 | 20 | 2.0 | 8.0 | 0.00 | 0.19 | 0.10 | 59 | 1007.8 |
| 20260507142528 | 58 | 47 | 2.0 | 8.0 | 0.00 | 0.19 | 0.10 | 57 | 1007.9 |
| 20260507142028 | 58 | 39 | 1.0 | 3.0 | 0.00 | 0.19 | 0.10 | 56 | 1007.9 |
| 20260507141548 | 58 | 23 | 1.0 | 2.0 | 0.00 | 0.19 | 0.10 | 60 | 1007.9 |
| 20260507141027 | 58 | 5 | 1.0 | 3.0 | 0.00 | 0.19 | 0.10 | 58 | 1007.9 |
| 20260507140528 | 57 | 321 | 1.0 | 3.0 | 0.00 | 0.19 | 0.10 | 58 | 1007.8 |
| 20260507140028 | 57 | 22 | 1.0 | 3.0 | 0.00 | 0.19 | 0.10 | 59 | 1007.8 |
| 20260507135527 | 57 | 36 | 1.0 | 3.0 | 0.00 | 0.19 | 0.10 | 58 | 1007.8 |
| 20260507135027 | 56 | 25 | 2.0 | 3.0 | 0.00 | 0.19 | 0.10 | 59 | 1007.7 |
| 20260507134527 | 56 | 19 | 1.0 | 3.0 | 0.00 | 0.19 | 0.10 | 60 | 1007.8 |
| 20260507134027 | 56 | 348 | 2.0 | 3.0 | 0.00 | 0.19 | 0.10 | 61 | 1007.8 |
| 20260507133527 | 56 | 359 | 2.0 | 6.0 | 0.00 | 0.19 | 0.10 | 61 | 1007.9 |
| 20260507133029 | 55 | 324 | 2.0 | 4.0 | 0.00 | 0.19 | 0.10 | 62 | 1007.9 |
| 20260507132529 | 55 | 348 | 2.0 | 4.0 | 0.00 | 0.19 | 0.10 | 62 | 1008.0 |
| 20260507132028 | 55 | 22 | 1.0 | 3.0 | 0.00 | 0.19 | 0.10 | 63 | 1008.0 |
| 20260507131528 | 54 | 321 | 2.0 | 4.0 | 0.00 | 0.19 | 0.10 | 68 | 1008.1 |
| 20260507131029 | 54 | 8 | 2.0 | 3.0 | 0.00 | 0.19 | 0.10 | 70 | 1008.1 |
| 20260507130528 | 54 | 33 | 1.0 | 3.0 | 0.00 | 0.19 | 0.10 | 74 | 1008.0 |
| 20260507130028 | 54 | 20 | 1.0 | 3.0 | 0.00 | 0.19 | 0.10 | 76 | 1008.1 |
| 20260507125528 | 54 | 14 | 1.0 | 3.0 | 0.00 | 0.19 | 0.10 | 80 | 1008.1 |
| 20260507125108 | 53 | 325 | 1.0 | 2.0 | 0.00 | 0.19 | 0.10 | 83 | 1008.3 |
| 20260507124527 | 52 | 312 | 1.0 | 2.0 | 0.00 | 0.19 | 0.10 | 85 | 1008.3 |
| 20260507124048 | 52 | 358 | 1.0 | 2.0 | 0.00 | 0.19 | 0.10 | 87 | 1008.3 |
| 20260507123527 | 51 | 353 | 1.0 | 3.0 | 0.00 | 0.19 | 0.10 | 87 | 1008.4 |
| 20260507123027 | 51 | 353 | 0.0 | 2.0 | 0.00 | 0.19 | 0.10 | 88 | 1008.2 |
| 20260507122527 | 51 | 353 | 0.0 | 2.0 | 0.00 | 0.19 | 0.10 | 88 | 1008.2 |
| 20260507122027 | 50 | 353 | 1.0 | 2.0 | 0.00 | 0.19 | 0.10 | 90 | 1008.2 |
| 20260507121529 | 50 | 329 | 0.0 | 1.0 | 0.00 | 0.19 | 0.10 | 90 | 1008.3 |
| 20260507121049 | 50 | 27 | 0.0 | 2.0 | 0.00 | 0.19 | 0.10 | 91 | 1008.2 |
| 20260507120528 | 49 | 27 | 0.0 | 2.0 | 0.00 | 0.19 | 0.10 | 92 | 1008.1 |
| 20260507120028 | 49 | 26 | 0.0 | 2.0 | 0.00 | 0.19 | 0.10 | 93 | 1008.1 |
| 20260507115528 | 49 | 0.0 | 0.0 | 0.00 | 0.19 | 0.10 | 94 | 1008.1 | |
| 20260507115028 | 49 | 293 | 0.0 | 1.0 | 0.00 | 0.19 | 0.10 | 95 | 1008.1 |
| 20260507114548 | 49 | 0.0 | 1.0 | 0.00 | 0.19 | 0.10 | 95 | 1008.1 | |
| 20260507114028 | 48 | 293 | 0.0 | 1.0 | 0.00 | 0.19 | 0.10 | 95 | 1008.0 |
| 20260507113528 | 48 | 0.0 | 1.0 | 0.00 | 0.19 | 0.10 | 96 | 1008.0 | |
| 20260507113027 | 48 | 282 | 0.0 | 1.0 | 0.00 | 0.19 | 0.10 | 97 | 1008.1 |
| 20260507112528 | 48 | 0.0 | 0.0 | 0.00 | 0.19 | 0.10 | 97 | 1008.1 | |
| 20260507112027 | 48 | 0.0 | 0.0 | 0.00 | 0.19 | 0.10 | 97 | 1008.0 | |
| 20260507111528 | 48 | 0.0 | 0.0 | 0.00 | 0.19 | 0.10 | 97 | 1007.9 | |
| 20260507111047 | 48 | 0.0 | 0.0 | 0.00 | 0.19 | 0.10 | 97 | 1008.0 | |
| 20260507110527 | 48 | 0.0 | 0.0 | 0.00 | 0.19 | 0.10 | 97 | 1007.8 | |
| 20260507110027 | 48 | 0.0 | 0.0 | 0.00 | 0.19 | 0.10 | 97 | 1007.9 | |
| 20260507105527 | 48 | 0.0 | 0.0 | 0.00 | 0.19 | 0.10 | 97 | 1008.0 | |
| 20260507105029 | 48 | 0.0 | 0.0 | 0.01 | 0.19 | 0.10 | 97 | 1008.1 | |
| 20260507104528 | 48 | 0.0 | 0.0 | 0.01 | 0.19 | 0.10 | 97 | 1008.2 | |
| 20260507104028 | 48 | 233 | 0.0 | 1.0 | 0.02 | 0.19 | 0.10 | 96 | 1008.2 |
| 20260507103528 | 48 | 0.0 | 1.0 | 0.02 | 0.19 | 0.10 | 96 | 1008.0 | |
| 20260507103028 | 48 | 0.0 | 0.0 | 0.02 | 0.19 | 0.10 | 96 | 1007.7 | |
| 20260507102548 | 48 | 0.0 | 1.0 | 0.02 | 0.19 | 0.10 | 96 | 1007.6 | |
| 20260507102108 | 48 | 0.0 | 0.0 | 0.02 | 0.19 | 0.10 | 96 | 1007.4 | |
| 20260507101528 | 48 | 0.0 | 0.0 | 0.04 | 0.19 | 0.10 | 96 | 1007.2 | |
| 20260507101048 | 48 | 0.0 | 0.0 | 0.05 | 0.19 | 0.10 | 96 | 1007.3 | |
| 20260507100528 | 48 | 37 | 0.0 | 1.0 | 0.05 | 0.18 | 0.09 | 96 | 1007.4 |
| 20260507100028 | 48 | 0.0 | 0.0 | 0.05 | 0.18 | 0.09 | 96 | 1007.3 | |
| 20260507095528 | 48 | 0.0 | 0.0 | 0.05 | 0.18 | 0.09 | 95 | 1007.3 | |
| 20260507095027 | 48 | 0.0 | 0.0 | 0.06 | 0.18 | 0.09 | 95 | 1007.2 | |
| 20260507094527 | 48 | 37 | 0.0 | 1.0 | 0.05 | 0.17 | 0.08 | 96 | 1007.2 |
| 20260507094027 | 49 | 52 | 0.0 | 2.0 | 0.05 | 0.17 | 0.08 | 95 | 1007.1 |
| 20260507093527 | 49 | 94 | 0.0 | 2.0 | 0.05 | 0.17 | 0.08 | 95 | 1007.3 |
| 20260507093029 | 49 | 136 | 0.0 | 1.0 | 0.05 | 0.17 | 0.08 | 95 | 1007.5 |
| 20260507092527 | 49 | 137 | 0.0 | 1.0 | 0.05 | 0.17 | 0.08 | 96 | 1007.4 |
| 20260507092029 | 49 | 0.0 | 1.0 | 0.05 | 0.17 | 0.08 | 95 | 1007.2 | |
| 20260507091528 | 49 | 136 | 0.0 | 1.0 | 0.04 | 0.15 | 0.06 | 95 | 1007.3 |
| 20260507091028 | 50 | 136 | 0.0 | 1.0 | 0.02 | 0.14 | 0.05 | 95 | 1007.4 |
| 20260507090528 | 50 | 171 | 0.0 | 2.0 | 0.02 | 0.13 | 0.04 | 95 | 1007.6 |
| 20260507090028 | 50 | 230 | 0.0 | 1.0 | 0.02 | 0.13 | 0.04 | 95 | 1007.6 |
| 20260507085528 | 50 | 0.0 | 1.0 | 0.02 | 0.13 | 0.04 | 95 | 1007.5 | |
| 20260507085048 | 50 | 230 | 0.0 | 1.0 | 0.01 | 0.12 | 0.03 | 94 | 1007.4 |
| 20260507084528 | 50 | 229 | 0.0 | 1.0 | 0.01 | 0.12 | 0.03 | 95 | 1007.5 |
| 20260507084048 | 50 | 0.0 | 1.0 | 0.02 | 0.12 | 0.03 | 95 | 1007.4 | |
| 20260507083527 | 51 | 229 | 0.0 | 1.0 | 0.02 | 0.12 | 0.03 | 95 | 1007.3 |
| 20260507083027 | 51 | 0.0 | 0.0 | 0.02 | 0.12 | 0.03 | 95 | 1007.2 | |
| 20260507082527 | 51 | 0.0 | 0.0 | 0.02 | 0.12 | 0.03 | 94 | 1007.1 | |
| 20260507082047 | 51 | 230 | 0.0 | 1.0 | 0.02 | 0.12 | 0.03 | 94 | 1007.0 |
| 20260507081527 | 51 | 223 | 0.0 | 2.0 | 0.02 | 0.11 | 0.02 | 94 | 1006.8 |
| 20260507081027 | 51 | 0.0 | 0.0 | 0.02 | 0.11 | 0.02 | 92 | 1006.9 | |
| 20260507080526 | 51 | 326 | 0.0 | 1.0 | 0.02 | 0.11 | 0.02 | 92 | 1007.3 |
| 20260507080029 | 52 | 326 | 0.0 | 3.0 | 0.02 | 0.11 | 0.02 | 91 | 1007.1 |
| 20260507075528 | 52 | 335 | 1.0 | 3.0 | 0.02 | 0.11 | 0.02 | 91 | 1007.3 |
| 20260507075028 | 53 | 90 | 1.0 | 3.0 | 0.02 | 0.11 | 0.02 | 91 | 1007.1 |
| 20260507074528 | 53 | 13 | 1.0 | 2.0 | 0.02 | 0.11 | 0.02 | 90 | 1006.9 |
| 20260507074028 | 54 | 18 | 0.0 | 2.0 | 0.01 | 0.10 | 0.01 | 90 | 1007.0 |
| 20260507073528 | 54 | 18 | 0.0 | 1.0 | 0.00 | 0.09 | 0.00 | 90 | 1007.2 |
| 20260507073028 | 54 | 18 | 0.0 | 1.0 | 0.00 | 0.09 | 0.00 | 90 | 1006.8 |
| 20260507072527 | 54 | 20 | 0.0 | 2.0 | 0.00 | 0.09 | 0.00 | 90 | 1006.4 |
| 20260507072027 | 54 | 26 | 1.0 | 2.0 | 0.00 | 0.09 | 0.00 | 90 | 1006.3 |
| 20260507071527 | 54 | 30 | 1.0 | 1.0 | 0.00 | 0.09 | 0.00 | 90 | 1006.3 |
| 20260507071047 | 54 | 30 | 0.0 | 1.0 | 0.00 | 0.09 | 0.00 | 90 | 1006.3 |
| 20260507070527 | 54 | 30 | 0.0 | 1.0 | 0.00 | 0.09 | 0.00 | 90 | 1006.5 |
| 20260507070027 | 54 | 30 | 0.0 | 1.0 | 0.00 | 0.09 | 0.00 | 90 | 1006.4 |
| 20260507065527 | 54 | 30 | 0.0 | 1.0 | 0.00 | 0.09 | 0.00 | 90 | 1006.2 |
| 20260507065027 | 54 | 30 | 0.0 | 1.0 | 0.00 | 0.09 | 0.00 | 90 | 1006.5 |
| 20260507064529 | 54 | 30 | 0.0 | 2.0 | 0.00 | 0.09 | 0.00 | 90 | 1006.2 |
| 20260507064028 | 55 | 30 | 0.0 | 2.0 | 0.00 | 0.09 | 0.00 | 90 | 1006.3 |
| 20260507063528 | 55 | 31 | 1.0 | 3.0 | 0.00 | 0.09 | 0.00 | 90 | 1006.3 |
| 20260507063028 | 55 | 181 | 0.0 | 2.0 | 0.00 | 0.09 | 0.00 | 91 | 1006.4 |
| 20260507062528 | 55 | 20 | 0.0 | 3.0 | 0.00 | 0.09 | 0.00 | 90 | 1006.5 |
| 20260507062048 | 55 | 10 | 1.0 | 3.0 | 0.00 | 0.09 | 0.00 | 90 | 1006.4 |
| 20260507061528 | 55 | 43 | 1.0 | 1.0 | 0.00 | 0.09 | 0.00 | 90 | 1006.2 |
| 20260507061027 | 55 | 44 | 0.0 | 1.0 | 0.00 | 0.09 | 0.00 | 90 | 1006.3 |
| 20260507060527 | 55 | 44 | 0.0 | 2.0 | 0.00 | 0.09 | 0.00 | 89 | 1006.4 |
| 20260507060027 | 55 | 48 | 0.0 | 2.0 | 0.00 | 0.09 | 0.00 | 90 | 1006.4 |
| 20260507055527 | 55 | 71 | 0.0 | 1.0 | 0.00 | 0.09 | 0.00 | 89 | 1006.6 |
| 20260507055027 | 56 | 72 | 0.0 | 2.0 | 0.00 | 0.09 | 0.00 | 90 | 1006.6 |
| 20260507054527 | 56 | 72 | 0.0 | 1.0 | 0.00 | 0.09 | 0.00 | 90 | 1006.5 |
| 20260507054027 | 56 | 52 | 1.0 | 3.0 | 0.00 | 0.09 | 0.00 | 90 | 1006.7 |
| 20260507053547 | 56 | 27 | 1.0 | 2.0 | 0.00 | 0.09 | 0.00 | 90 | 1006.8 |
| 20260507053029 | 56 | 28 | 0.0 | 1.0 | 0.00 | 0.09 | 0.00 | 91 | 1006.7 |
| 20260507052528 | 56 | 28 | 0.0 | 2.0 | 0.00 | 0.09 | 0.00 | 91 | 1006.5 |
| 20260507052028 | 57 | 26 | 0.0 | 2.0 | 0.00 | 0.09 | 0.00 | 91 | 1006.4 |
| 20260507051528 | 57 | 32 | 0.0 | 2.0 | 0.00 | 0.09 | 0.00 | 90 | 1006.2 |
| 20260507051028 | 57 | 352 | 1.0 | 2.0 | 0.00 | 0.09 | 0.00 | 90 | 1006.4 |
| 20260507050527 | 57 | 336 | 1.0 | 2.0 | 0.00 | 0.09 | 0.00 | 90 | 1006.3 |
| 20260507050048 | 57 | 344 | 1.0 | 3.0 | 0.00 | 0.09 | 0.00 | 90 | 1006.4 |
| 20260507045528 | 58 | 3 | 1.0 | 2.0 | 0.00 | 0.09 | 0.00 | 91 | 1006.6 |
| 20260507045108 | 58 | 19 | 1.0 | 3.0 | 0.00 | 0.09 | 0.00 | 92 | 1006.5 |
| 20260507044527 | 58 | 352 | 1.0 | 3.0 | 0.00 | 0.09 | 0.00 | 94 | 1006.6 |
| 20260507044027 | 58 | 71 | 0.0 | 1.0 | 0.00 | 0.09 | 0.00 | 94 | 1006.4 |
| 20260507043547 | 58 | 0 | 0.0 | 2.0 | 0.00 | 0.09 | 0.00 | 95 | 1006.3 |
| 20260507043027 | 58 | 218 | 1.0 | 1.0 | 0.00 | 0.09 | 0.00 | 95 | 1006.3 |
| 20260507042527 | 58 | 190 | 0.0 | 2.0 | 0.00 | 0.09 | 0.00 | 95 | 1006.3 |
| 20260507042027 | 59 | 185 | 1.0 | 3.0 | 0.01 | 0.09 | 0.00 | 96 | 1006.4 |
| 20260507041549 | 59 | 353 | 1.0 | 2.0 | 0.01 | 0.09 | 0.00 | 96 | 1006.4 |
| 20260507041028 | 59 | 63 | 0.0 | 2.0 | 0.01 | 0.09 | 0.00 | 97 | 1006.5 |
| 20260507040528 | 59 | 76 | 0.0 | 2.0 | 0.00 | 0.09 | 0.00 | 97 | 1006.7 |
| 20260507040108 | 59 | 124 | 0.0 | 1.0 | 0.00 | 0.09 | 0.00 | 97 | 1006.8 |
| 20260507035549 | 59 | 119 | 0.0 | 1.0 | 0.00 | 0.09 | 0.09 | 97 | 1006.6 |
| 20260507035028 | 59 | 119 | 0.0 | 1.0 | 0.00 | 0.09 | 0.09 | 97 | 1006.5 |
| 20260507034548 | 59 | 131 | 0.0 | 2.0 | 0.00 | 0.09 | 0.09 | 97 | 1006.3 |
| 20260507034027 | 59 | 126 | 0.0 | 2.0 | 0.00 | 0.09 | 0.09 | 97 | 1006.3 |
| 20260507033527 | 59 | 271 | 0.0 | 2.0 | 0.00 | 0.09 | 0.09 | 96 | 1006.1 |
| 20260507033047 | 59 | 313 | 0.0 | 3.0 | 0.00 | 0.09 | 0.09 | 96 | 1006.1 |
| 20260507032527 | 59 | 56 | 1.0 | 3.0 | 0.00 | 0.09 | 0.09 | 96 | 1006.2 |
| 20260507032027 | 59 | 187 | 0.0 | 3.0 | 0.00 | 0.09 | 0.09 | 95 | 1006.0 |
| 20260507031527 | 59 | 251 | 1.0 | 4.0 | 0.00 | 0.09 | 0.09 | 95 | 1005.8 |
| 20260507031027 | 59 | 113 | 1.0 | 4.0 | 0.00 | 0.09 | 0.09 | 95 | 1005.8 |
| 20260507030527 | 59 | 190 | 1.0 | 3.0 | 0.00 | 0.09 | 0.09 | 95 | 1005.8 |
| 20260507030029 | 59 | 269 | 0.0 | 2.0 | 0.00 | 0.09 | 0.09 | 95 | 1005.7 |
| 20260507025528 | 59 | 282 | 1.0 | 6.0 | 0.00 | 0.09 | 0.09 | 95 | 1005.6 |
| 20260507025028 | 59 | 205 | 0.0 | 6.0 | 0.00 | 0.09 | 0.09 | 95 | 1005.6 |
| 20260507024528 | 59 | 223 | 1.0 | 7.0 | 0.00 | 0.09 | 0.09 | 95 | 1005.8 |
| 20260507024028 | 59 | 209 | 1.0 | 7.0 | 0.00 | 0.09 | 0.09 | 95 | 1005.9 |
| 20260507023528 | 59 | 216 | 1.0 | 3.0 | 0.00 | 0.09 | 0.09 | 95 | 1005.9 |
| 20260507023028 | 59 | 120 | 0.0 | 3.0 | 0.00 | 0.09 | 0.09 | 95 | 1006.0 |
| 20260507022527 | 59 | 215 | 1.0 | 6.0 | 0.00 | 0.09 | 0.09 | 95 | 1005.9 |
| 20260507022027 | 59 | 204 | 1.0 | 3.0 | 0.00 | 0.09 | 0.09 | 95 | 1005.8 |
| 20260507021527 | 59 | 221 | 1.0 | 4.0 | 0.00 | 0.09 | 0.09 | 95 | 1005.9 |
| 20260507021029 | 59 | 250 | 1.0 | 7.0 | 0.00 | 0.09 | 0.09 | 96 | 1005.9 |
| 20260507020527 | 59 | 202 | 0.0 | 3.0 | 0.00 | 0.09 | 0.09 | 96 | 1005.9 |
| 20260507020027 | 59 | 220 | 0.0 | 2.0 | 0.00 | 0.09 | 0.09 | 96 | 1005.8 |
| 20260507015529 | 59 | 242 | 1.0 | 3.0 | 0.00 | 0.09 | 0.09 | 96 | 1005.8 |
| 20260507015028 | 59 | 249 | 1.0 | 3.0 | 0.00 | 0.09 | 0.09 | 96 | 1005.9 |
| 20260507014528 | 59 | 206 | 1.0 | 6.0 | 0.00 | 0.09 | 0.09 | 95 | 1005.9 |
| 20260507014028 | 59 | 210 | 1.0 | 6.0 | 0.00 | 0.09 | 0.09 | 96 | 1005.9 |
| 20260507013548 | 59 | 198 | 2.0 | 6.0 | 0.00 | 0.09 | 0.09 | 96 | 1005.9 |
| 20260507013028 | 59 | 261 | 1.0 | 4.0 | 0.00 | 0.09 | 0.09 | 96 | 1005.8 |
| 20260507012527 | 58 | 211 | 2.0 | 10.0 | 0.00 | 0.09 | 0.09 | 96 | 1006.0 |
| 20260507012028 | 58 | 210 | 2.0 | 8.0 | 0.00 | 0.09 | 0.09 | 96 | 1006.0 |
| 20260507011527 | 58 | 208 | 1.0 | 7.0 | 0.00 | 0.09 | 0.09 | 96 | 1006.0 |
| 20260507011028 | 58 | 264 | 2.0 | 7.0 | 0.00 | 0.09 | 0.09 | 96 | 1006.1 |
| 20260507010527 | 58 | 232 | 2.0 | 9.0 | 0.00 | 0.09 | 0.09 | 95 | 1006.1 |
| 20260507010027 | 58 | 193 | 2.0 | 9.0 | 0.00 | 0.09 | 0.09 | 95 | 1006.1 |
| 20260507005527 | 58 | 237 | 1.0 | 4.0 | 0.00 | 0.09 | 0.09 | 95 | 1006.2 |
| 20260507005047 | 58 | 177 | 1.0 | 7.0 | 0.00 | 0.09 | 0.09 | 95 | 1006.1 |
| 20260507004527 | 58 | 233 | 1.0 | 6.0 | 0.00 | 0.09 | 0.09 | 95 | 1006.2 |
| 20260507004027 | 58 | 214 | 2.0 | 6.0 | 0.00 | 0.09 | 0.09 | 95 | 1006.1 |
| 20260507003526 | 58 | 243 | 1.0 | 7.0 | 0.00 | 0.09 | 0.09 | 95 | 1006.1 |
| 20260507003029 | 58 | 244 | 1.0 | 7.0 | 0.00 | 0.09 | 0.09 | 95 | 1006.1 |
| 20260507002528 | 58 | 177 | 2.0 | 7.0 | 0.01 | 0.09 | 0.09 | 96 | 1006.2 |
| 20260507002028 | 58 | 190 | 2.0 | 6.0 | 0.01 | 0.09 | 0.09 | 95 | 1006.2 |
| 20260507001528 | 58 | 211 | 2.0 | 9.0 | 0.02 | 0.09 | 0.09 | 95 | 1006.1 |
| 20260507001028 | 58 | 192 | 2.0 | 9.0 | 0.02 | 0.09 | 0.09 | 95 | 1005.9 |
| 20260507000528 | 59 | 198 | 2.0 | 7.0 | 0.03 | 0.09 | 0.09 | 95 | 1005.8 |
| 20260507000028 | 59 | 210 | 2.0 | 7.0 | 0.02 | 0.08 | 0.08 | 95 | 1005.7 |
| 20260506235527 | 59 | 211 | 3.0 | 10.0 | 0.02 | 0.08 | 0.08 | 95 | 1005.8 |
| 20260506235027 | 59 | 199 | 2.0 | 7.0 | 0.02 | 0.08 | 0.08 | 95 | 1005.8 |
| 20260506234547 | 59 | 211 | 2.0 | 9.0 | 0.02 | 0.08 | 0.08 | 95 | 1005.8 |
| 20260506234027 | 59 | 210 | 1.0 | 6.0 | 0.02 | 0.08 | 0.08 | 95 | 1005.9 |
| 20260506233527 | 59 | 187 | 1.0 | 7.0 | 0.02 | 0.08 | 0.08 | 95 | 1005.8 |
| 20260506233027 | 59 | 224 | 2.0 | 8.0 | 0.02 | 0.08 | 0.08 | 95 | 1005.7 |
| 20260506232527 | 59 | 167 | 1.0 | 8.0 | 0.02 | 0.08 | 0.08 | 94 | 1005.8 |
| 20260506232026 | 60 | 238 | 1.0 | 7.0 | 0.01 | 0.07 | 0.07 | 94 | 1005.7 |
| 20260506231528 | 60 | 178 | 1.0 | 6.0 | 0.01 | 0.07 | 0.07 | 94 | 1005.7 |
| 20260506231028 | 60 | 195 | 1.0 | 6.0 | 0.00 | 0.06 | 0.06 | 93 | 1005.8 |
| 20260506230528 | 60 | 182 | 1.0 | 7.0 | 0.00 | 0.06 | 0.06 | 94 | 1005.8 |
| 20260506230028 | 60 | 214 | 2.0 | 7.0 | 0.00 | 0.06 | 0.06 | 94 | 1005.7 |
| 20260506225528 | 60 | 205 | 1.0 | 9.0 | 0.00 | 0.06 | 0.06 | 93 | 1005.8 |
| 20260506225027 | 60 | 201 | 3.0 | 14.0 | 0.01 | 0.06 | 0.06 | 94 | 1005.9 |
| 20260506224527 | 60 | 206 | 2.0 | 7.0 | 0.01 | 0.06 | 0.06 | 94 | 1005.9 |
| 20260506224027 | 60 | 219 | 2.0 | 9.0 | 0.02 | 0.06 | 0.06 | 94 | 1005.9 |
| 20260506223527 | 60 | 165 | 2.0 | 11.0 | 0.02 | 0.06 | 0.06 | 94 | 1006.0 |
| 20260506223027 | 60 | 221 | 1.0 | 11.0 | 0.02 | 0.06 | 0.06 | 94 | 1006.0 |
| 20260506222527 | 60 | 180 | 3.0 | 11.0 | 0.02 | 0.06 | 0.06 | 94 | 1006.1 |
| 20260506222029 | 60 | 187 | 3.0 | 10.0 | 0.02 | 0.06 | 0.06 | 94 | 1006.2 |
| 20260506221528 | 60 | 182 | 2.0 | 10.0 | 0.02 | 0.06 | 0.06 | 94 | 1006.3 |
| 20260506221028 | 60 | 207 | 2.0 | 9.0 | 0.02 | 0.06 | 0.06 | 93 | 1006.2 |
| 20260506220529 | 60 | 210 | 2.0 | 9.0 | 0.02 | 0.06 | 0.06 | 93 | 1006.3 |
| 20260506220028 | 60 | 215 | 2.0 | 10.0 | 0.01 | 0.05 | 0.05 | 92 | 1006.2 |
| 20260506215528 | 60 | 175 | 3.0 | 11.0 | 0.01 | 0.05 | 0.05 | 91 | 1006.3 |
| 20260506215048 | 61 | 221 | 1.0 | 6.0 | 0.01 | 0.05 | 0.05 | 90 | 1006.5 |
| 20260506214528 | 61 | 193 | 2.0 | 7.0 | 0.00 | 0.05 | 0.05 | 89 | 1006.6 |
| 20260506214028 | 61 | 200 | 3.0 | 15.0 | 0.00 | 0.04 | 0.04 | 87 | 1006.7 |
| 20260506213547 | 61 | 197 | 4.0 | 15.0 | 0.00 | 0.04 | 0.04 | 87 | 1006.6 |
| 20260506213027 | 61 | 208 | 2.0 | 11.0 | 0.00 | 0.04 | 0.04 | 88 | 1006.7 |
| 20260506212527 | 61 | 204 | 2.0 | 6.0 | 0.01 | 0.04 | 0.04 | 88 | 1006.6 |
| 20260506212027 | 61 | 166 | 1.0 | 6.0 | 0.01 | 0.04 | 0.04 | 88 | 1006.6 |
| 20260506211527 | 61 | 198 | 2.0 | 7.0 | 0.01 | 0.04 | 0.04 | 88 | 1006.7 |
| 20260506211027 | 61 | 236 | 1.0 | 4.0 | 0.01 | 0.04 | 0.04 | 88 | 1006.6 |
| 20260506210529 | 61 | 248 | 1.0 | 9.0 | 0.01 | 0.04 | 0.04 | 88 | 1006.7 |
| 20260506210030 | 61 | 158 | 1.0 | 8.0 | 0.01 | 0.04 | 0.04 | 88 | 1006.7 |
| 20260506205528 | 61 | 224 | 1.0 | 6.0 | 0.01 | 0.04 | 0.04 | 88 | 1006.8 |
| 20260506205028 | 61 | 223 | 3.0 | 10.0 | 0.01 | 0.04 | 0.04 | 87 | 1006.8 |
| 20260506204548 | 61 | 200 | 1.0 | 9.0 | 0.02 | 0.04 | 0.04 | 87 | 1006.9 |
| 20260506204028 | 62 | 164 | 2.0 | 7.0 | 0.02 | 0.04 | 0.04 | 86 | 1007.0 |
| 20260506203528 | 62 | 188 | 2.0 | 10.0 | 0.02 | 0.04 | 0.04 | 86 | 1007.0 |
| 20260506203028 | 62 | 225 | 1.0 | 7.0 | 0.02 | 0.04 | 0.04 | 85 | 1007.0 |
| 20260506202528 | 62 | 200 | 2.0 | 7.0 | 0.02 | 0.04 | 0.04 | 85 | 1007.0 |
| 20260506202028 | 62 | 202 | 2.0 | 10.0 | 0.03 | 0.04 | 0.04 | 86 | 1006.9 |
| 20260506201528 | 62 | 183 | 1.0 | 7.0 | 0.03 | 0.04 | 0.04 | 86 | 1006.9 |
| 20260506201028 | 62 | 201 | 1.0 | 4.0 | 0.04 | 0.04 | 0.04 | 85 | 1006.7 |
| 20260506200528 | 63 | 149 | 2.0 | 7.0 | 0.04 | 0.04 | 0.04 | 85 | 1006.8 |
| 20260506200028 | 63 | 129 | 1.0 | 6.0 | 0.04 | 0.04 | 0.04 | 85 | 1006.7 |
| 20260506195528 | 63 | 201 | 2.0 | 7.0 | 0.03 | 0.03 | 0.03 | 84 | 1006.8 |
| 20260506195027 | 63 | 185 | 2.0 | 11.0 | 0.03 | 0.03 | 0.03 | 83 | 1006.9 |
| 20260506194527 | 64 | 192 | 2.0 | 7.0 | 0.03 | 0.03 | 0.03 | 83 | 1006.9 |
| 20260506194047 | 64 | 185 | 1.0 | 4.0 | 0.02 | 0.02 | 0.02 | 82 | 1007.1 |
| 20260506193529 | 65 | 192 | 1.0 | 4.0 | 0.02 | 0.02 | 0.02 | 80 | 1007.0 |
| 20260506193029 | 65 | 235 | 1.0 | 7.0 | 0.02 | 0.02 | 0.02 | 77 | 1007.0 |
| 20260506192527 | 66 | 221 | 2.0 | 14.0 | 0.01 | 0.01 | 0.01 | 74 | 1007.0 |
| 20260506192028 | 66 | 215 | 2.0 | 14.0 | 0.01 | 0.01 | 0.01 | 73 | 1007.0 |
| 20260506191528 | 67 | 265 | 1.0 | 6.0 | 0.00 | 0.00 | 0.00 | 71 | 1007.0 |
| 20260506191027 | 68 | 227 | 3.0 | 8.0 | 0.00 | 0.00 | 0.00 | 67 | 1006.9 |
| 20260506190527 | 68 | 278 | 2.0 | 9.0 | 0.00 | 0.00 | 0.00 | 65 | 1006.9 |
| 20260506190027 | 68 | 257 | 2.0 | 7.0 | 0.00 | 0.00 | 0.00 | 64 | 1007.0 |
| 20260506185529 | 69 | 242 | 2.0 | 14.0 | 0.00 | 0.00 | 0.00 | 63 | 1007.0 |
| 20260506185029 | 69 | 226 | 4.0 | 14.0 | 0.00 | 0.00 | 0.00 | 62 | 1007.1 |
| 20260506184528 | 69 | 252 | 4.0 | 14.0 | 0.00 | 0.00 | 0.00 | 61 | 1007.0 |
| 20260506184029 | 70 | 149 | 2.0 | 15.0 | 0.00 | 0.00 | 0.00 | 60 | 1007.0 |
| 20260506183528 | 70 | 232 | 3.0 | 23.0 | 0.00 | 0.00 | 0.00 | 58 | 1007.0 |
| 20260506183028 | 71 | 234 | 2.0 | 7.0 | 0.00 | 0.00 | 0.00 | 56 | 1007.0 |
| 20260506182528 | 71 | 198 | 3.0 | 13.0 | 0.00 | 0.00 | 0.00 | 55 | 1007.1 |
| 20260506182028 | 71 | 215 | 2.0 | 13.0 | 0.00 | 0.00 | 0.00 | 54 | 1007.1 |
| 20260506181528 | 72 | 75 | 1.0 | 3.0 | 0.00 | 0.00 | 0.00 | 54 | 1007.1 |
| 20260506181048 | 72 | 232 | 1.0 | 4.0 | 0.00 | 0.00 | 0.00 | 53 | 1007.0 |
| 20260506180528 | 72 | 286 | 2.0 | 11.0 | 0.00 | 0.00 | 0.00 | 53 | 1007.2 |
| 20260506180027 | 72 | 211 | 3.0 | 13.0 | 0.00 | 0.00 | 0.00 | 52 | 1007.3 |
| 20260506175548 | 72 | 223 | 5.0 | 15.0 | 0.00 | 0.00 | 0.00 | 52 | 1007.3 |
| 20260506175027 | 72 | 247 | 4.0 | 15.0 | 0.00 | 0.00 | 0.00 | 52 | 1007.4 |
| 20260506174527 | 73 | 192 | 3.0 | 13.0 | 0.00 | 0.00 | 0.00 | 54 | 1007.3 |
| 20260506174049 | 72 | 193 | 4.0 | 13.0 | 0.00 | 0.00 | 0.00 | 55 | 1007.3 |